Weather History for KPBF - June, 2012

Change the Weather History Date:

Tuesday, June 5, 2012

  Actual Average Record
Temperature  
Mean Temperature 74 °F 77 °F  
Max Temperature 82 °F 87 °F 100 °F (1977)
Min Temperature 65 °F 67 °F 53 °F (1954)
Degree Days  
Heating Degree Days 0 0  
Month to date heating degree days 0 0  
Since 1 June heating degree days 0 0  
Since 1 July heating degree days 2207 2881  
Cooling Degree Days 9 12  
Month to date cooling degree days 51 57  
Year to date cooling degree days 553 364  
Since 1 June cooling degree days 51 57  
Growing Degree Days 23 (Base 50)    
Moisture  
Dew Point 67 °F    
Average Humidity 79    
Maximum Humidity 100    
Minimum Humidity 58    
Precipitation  
Precipitation 0.00 in 0.14 in 2.56 in (1904)
Month to date precipitation 0.45 0.70  
Year to date precipitation 14.96 23.90  
Snow  
Snow 0.00 in 0.00 in - ()
Month to date snowfall 0.0 0.0  
Since 1 June snowfall 0.0 0.0  
Since 1 July snowfall 0.5 3.1  
Snow Depth 0.00 in    
Sea Level Pressure  
Sea Level Pressure 29.79 in    
Wind  
Wind Speed 7 mph (NNE)    
Max Wind Speed 15 mph    
Max Gust Speed 20 mph    
Visibility 7 miles    
Events Fog    
T = Trace of Precipitation, MM = Missing Value Source: NWS Daily Summary

Daily Weather History Graph

Daily Weather History Graph

Search for Another Location

Airport or City:

Trip Planner

Search our weather history database for the weather conditions in past years. The results will help you decide how hot, cold, wet, or windy it might be!

Date:

Astronomy

Jun. 05, 2012 Rise Set
Actual Time 5:56 AM CDT 8:16 PM CDT
Civil Twilight 5:27 AM CDT 8:45 PM CDT
Nautical Twilight 4:51 AM CDT 9:21 PM CDT
Astronomical Twilight 4:12 AM CDT 10:00 PM CDT
Moon 9:44 PM CDT (6/5) 7:07 AM CDT (6/5)
Length of Visible Light 15h 18m
Length of Day
14h 20m
Full, 98% of the Moon is Illuminated
Jun 5
Full
Jun 11
Last Quarter
Jun 19
New
Jun 26
First Quarter
Jul 3
Full

Hourly Weather History & Observations

Time (CDT) Temp. Heat Index Dew Point Humidity Pressure Visibility Wind Dir Wind Speed Gust Speed Precip Events Conditions
12:10 AM 68.0 °F - 66.2 °F 94% 29.79 in 1.5 mi Calm Calm - N/A   Overcast
12:22 AM 66.2 °F - 66.2 °F 100% 29.79 in 0.5 mi Calm Calm - N/A Fog Fog
12:29 AM 66.2 °F - 66.2 °F 100% 29.79 in 0.2 mi WSW 3.5 mph - N/A Fog Fog
12:51 AM 66.2 °F - 66.2 °F 100% 29.78 in 0.5 mi Calm Calm - N/A Fog Fog
12:53 AM 66.9 °F - 66.9 °F 100% 29.78 in 0.5 mi Calm Calm - N/A Fog Fog
1:07 AM 66.2 °F - 66.2 °F 100% 29.78 in 0.2 mi Calm Calm - N/A Fog Fog
1:33 AM 66.2 °F - 66.2 °F 100% 29.78 in 0.5 mi Calm Calm - N/A Fog Fog
1:51 AM 66.2 °F - 66.2 °F 100% 29.78 in 0.2 mi Calm Calm - N/A Fog Fog
1:53 AM 66.0 °F - 66.0 °F 100% 29.77 in 0.2 mi Calm Calm - N/A Fog Fog
2:09 AM 66.2 °F - 66.2 °F 100% 29.78 in 0.8 mi Calm Calm - N/A   Mist
2:53 AM 66.0 °F - 66.0 °F 100% 29.75 in 0.5 mi Calm Calm - N/A Fog Fog
3:04 AM 66.2 °F - 66.2 °F 100% 29.76 in 2.5 mi SW 3.5 mph - N/A   Mostly Cloudy
3:10 AM 66.2 °F - 64.4 °F 94% 29.76 in 10.0 mi SW 3.5 mph - N/A   Scattered Clouds
3:53 AM 64.9 °F - 64.9 °F 100% 29.75 in 10.0 mi Calm Calm - N/A   Clear
4:53 AM 64.9 °F - 64.9 °F 100% 29.77 in 10.0 mi Calm Calm - N/A   Clear
5:53 AM 66.0 °F - 66.0 °F 100% 29.78 in 10.0 mi Calm Calm - N/A   Clear
6:32 AM 66.2 °F - 66.2 °F 100% 29.78 in 10.0 mi Calm Calm - 0.01 in   Partly Cloudy
6:53 AM 66.9 °F - 66.0 °F 97% 29.78 in 10.0 mi Calm Calm - 0.01 in   Clear
7:53 AM 71.6 °F - 69.8 °F 94% 29.79 in 10.0 mi WNW 5.8 mph - N/A   Clear
8:53 AM 75.9 °F - 71.1 °F 85% 29.80 in 10.0 mi NNW 11.5 mph - N/A   Clear
9:23 AM 75.2 °F - 69.8 °F 83% 29.82 in 10.0 mi North 11.5 mph - N/A   Mostly Cloudy
9:53 AM 75.0 °F - 71.1 °F 87% 29.82 in 8.0 mi NNE 13.8 mph - N/A   Overcast
10:53 AM 75.9 °F - 71.1 °F 85% 29.82 in 9.0 mi North 10.4 mph - N/A   Overcast
11:45 AM 78.8 °F - 71.6 °F 78% 29.83 in 10.0 mi North 9.2 mph - N/A   Overcast
11:53 AM 78.1 °F - 71.1 °F 79% 29.82 in 10.0 mi North 10.4 mph - N/A   Overcast
12:53 PM 78.1 °F - 72.0 °F 81% 29.82 in 10.0 mi North 13.8 mph - N/A   Overcast
1:53 PM 79.0 °F - 71.1 °F 77% 29.81 in 10.0 mi NNE 13.8 mph - N/A   Overcast
2:53 PM 77.0 °F - 70.0 °F 79% 29.81 in 10.0 mi NNE 9.2 mph - N/A   Overcast
3:53 PM 80.1 °F 83.2 °F 70.0 °F 71% 29.79 in 10.0 mi NE 9.2 mph 17.3 mph N/A   Overcast
4:01 PM 80.6 °F 83.9 °F 69.8 °F 70% 29.79 in 10.0 mi NE 10.4 mph - N/A   Overcast
4:13 PM 80.6 °F 83.9 °F 69.8 °F 70% 29.79 in 10.0 mi NE 10.4 mph - N/A   Overcast
4:53 PM 80.1 °F 83.2 °F 70.0 °F 71% 29.78 in 10.0 mi NE 6.9 mph - N/A   Mostly Cloudy
5:53 PM 82.0 °F 85.5 °F 69.1 °F 65% 29.77 in 10.0 mi NE 8.1 mph - N/A   Clear
6:53 PM 81.0 °F 83.3 °F 66.9 °F 62% 29.78 in 10.0 mi NNE 10.4 mph 18.4 mph N/A   Clear
7:53 PM 79.0 °F - 63.0 °F 58% 29.79 in 10.0 mi NNE 8.1 mph - N/A   Clear
8:53 PM 75.0 °F - 63.0 °F 66% 29.81 in 10.0 mi NNE 8.1 mph - N/A   Clear
9:53 PM 73.0 °F - 64.0 °F 73% 29.83 in 10.0 mi North 5.8 mph - N/A   Clear
10:53 PM 73.0 °F - 62.1 °F 68% 29.84 in 10.0 mi NNE 9.2 mph - N/A   Clear
11:53 PM 72.0 °F - 61.0 °F 68% 29.84 in 10.0 mi NE 8.1 mph - N/A   Clear